Wattisham, United Kingdom

5:29 PM GMT on February 08, 2016 (GMT +0000)
Wattisham Army

Weather History for EGUW - December, 2013

Change the Weather History Date:

Friday, December 13, 2013

  Actual Average (EGSC) Record (EGSC)
Temperature  
Mean Temperature 44 °F -  
Max Temperature 48 °F 43 °F 57 °F (2003)
Min Temperature 40 °F 37 °F 23 °F (2012)
Degree Days  
Heating Degree Days 21    
Moisture  
Dew Point 44 °F    
Average Humidity 95    
Maximum Humidity 100    
Minimum Humidity 87    
Precipitation  
Precipitation 0.08 in - - ()
Sea Level Pressure  
Sea Level Pressure 30.09 in    
Wind  
Wind Speed 9 mph ()    
Max Wind Speed 14 mph    
Max Gust Speed -    
Visibility 3.9 miles    
Events Rain    
Averages and records for this station are not official NWS values.
T = Trace of Precipitation, MM = Missing Value Source: Averaged Metar Reports

Daily Weather History Graph

Daily Weather History Graph

Search for Another Location

Airport or City:

Trip Planner

Search our weather history database for the weather conditions in past years. The results will help you decide how hot, cold, wet, or windy it might be!

Date:

Astronomy

Dec. 13, 2013 Rise Set
Actual Time 7:56 AM GMT 3:43 PM GMT
Civil Twilight 7:15 AM GMT 4:24 PM GMT
Nautical Twilight 6:32 AM GMT 5:08 PM GMT
Astronomical Twilight 5:50 AM GMT 5:49 PM GMT
Moon 1:37 PM GMT (12/13) 3:42 AM GMT (12/13)
Length of Visible Light 9h 08m
Length of Day
7h 47m
Waxing Gibbous, 86% of the Moon is Illuminated
Dec 13
Waxing Gibbous
Dec 17
Full
Dec 25
Last Quarter
Jan 1
New
Jan 8
First Quarter

Hourly Weather History & Observations

Time (GMT) Temp. Windchill Dew Point Humidity Pressure Visibility Wind Dir Wind Speed Gust Speed Precip Events Conditions
12:00 AM 41 °F - 40 °F 95% 30.21 in 2 mi SSE 6.9 mph - -   Mist
12:50 AM 42.8 °F 37.5 °F 39.2 °F 87% 30.18 in 3.1 mi South 9.2 mph - N/A   Haze
1:50 AM 41.0 °F 35.2 °F 41.0 °F 100% 30.15 in - South 9.2 mph - N/A   Partly Cloudy
2:50 AM 42.8 °F 38.0 °F 42.8 °F 100% 30.15 in 1.6 mi SSW 8.1 mph - N/A   Scattered Clouds
3:00 AM 43 °F - 42 °F 96% 30.17 in 2 mi SSW 8.1 mph - -   Mist
3:50 AM 44.6 °F 40.7 °F 42.8 °F 93% 30.12 in 2.2 mi South 6.9 mph - N/A   Overcast
4:50 AM 44.6 °F 40.2 °F 42.8 °F 93% 30.12 in 2.5 mi South 8.1 mph - N/A   Mostly Cloudy
5:50 AM 44.6 °F 39.2 °F 44.6 °F 100% 30.12 in 2.5 mi South 10.4 mph - N/A   Mostly Cloudy
6:00 AM 45 °F - 44 °F 93% 30.14 in 2 mi South 10.4 mph - -   Mist
6:50 AM 44.6 °F 39.2 °F 44.6 °F 100% 30.12 in - South 10.4 mph - N/A   Overcast
7:50 AM 46.4 °F 41.9 °F 44.6 °F 93% 30.12 in - South 9.2 mph - N/A Rain Light Rain
8:50 AM 46.4 °F 41.9 °F 44.6 °F 93% 30.12 in - South 9.2 mph - N/A Rain Light Rain
9:00 AM 46 °F - 45 °F 96% 30.14 in 2 mi South 9.2 mph - - Rain Light Rain
9:26 AM 46.4 °F 41.5 °F 44.6 °F 93% 30.12 in - South 10.4 mph - N/A Rain Rain
9:50 AM 46.4 °F 41.5 °F 46.4 °F 100% 30.09 in 2.2 mi South 10.4 mph - N/A Rain Rain
10:29 AM 46.4 °F 41.5 °F 46.4 °F 100% 30.09 in - South 10.4 mph - N/A Rain Light Rain
10:50 AM 46.4 °F 41.5 °F 46.4 °F 100% 30.09 in - South 10.4 mph - N/A Rain Rain
11:18 AM 46.4 °F 41.1 °F 46.4 °F 100% 30.09 in 2.2 mi South 11.5 mph - N/A Rain Light Rain
11:50 AM 46.4 °F 41.1 °F 46.4 °F 100% 30.06 in 2.2 mi South 11.5 mph - N/A Rain Light Rain
12:00 PM 47 °F - 46 °F 94% 30.10 in 2 mi South 11.5 mph - - Rain Light Rain
12:16 PM 46.4 °F 41.1 °F 46.4 °F 100% 30.06 in - South 11.5 mph - N/A Rain Light Rain
12:50 PM 46.4 °F 41.1 °F 46.4 °F 100% 30.06 in 3.1 mi South 11.5 mph - N/A Rain Light Rain
1:28 PM 48.2 °F - 44.6 °F 87% 30.04 in 5.0 mi South 12.7 mph - N/A   Haze
1:50 PM 48.2 °F - 44.6 °F 87% 30.04 in 5.0 mi South 12.7 mph - N/A   Haze
2:50 PM 46.4 °F 40.4 °F 44.6 °F 93% 30.04 in 5.6 mi South 13.8 mph - N/A   Haze
3:00 PM 47 °F - 45 °F 88% 30.06 in 6 mi South 13.8 mph - -   Haze
3:50 PM 46.4 °F 40.7 °F 44.6 °F 93% 30.04 in 5.6 mi South 12.7 mph - N/A   Haze
4:50 PM 46.4 °F 41.1 °F 44.6 °F 93% 30.04 in 3.7 mi South 11.5 mph - N/A   Light Drizzle
5:50 PM 46.4 °F 41.5 °F 44.6 °F 93% 30.04 in 5.0 mi South 10.4 mph - N/A   Mostly Cloudy
6:00 PM 46 °F - 45 °F 93% 30.05 in 5 mi South 10.4 mph - - Rain Rain
6:50 PM 46.4 °F 41.1 °F 44.6 °F 93% 30.04 in 5.0 mi South 11.5 mph - N/A   Mostly Cloudy
7:50 PM 46.4 °F 41.5 °F 46.4 °F 100% 30.04 in - SSW 10.4 mph - N/A   Light Drizzle
8:50 PM 48.2 °F - 46.4 °F 93% 30.04 in 6.2 mi WSW 10.4 mph - N/A   Light Drizzle
9:00 PM 47 °F - 46 °F 96% 30.07 in 7 mi WSW 10.4 mph - - Rain Light Drizzle
9:50 PM 46.4 °F 42.4 °F 44.6 °F 93% 30.06 in 6.2 mi WSW 8.1 mph - N/A   Mostly Cloudy
10:50 PM 46.4 °F 41.9 °F 42.8 °F 87% 30.06 in 6.2 mi WSW 9.2 mph - N/A   Mostly Cloudy
11:50 PM 44.6 °F 38.8 °F 42.8 °F 93% 30.09 in 6.2 mi WSW 11.5 mph - N/A   Partly Cloudy